Location: Krakow
(50.0830°N, 19.9170°E)
Time: 07:41:53
(UTC+02:00)

Tiros 1 despin weight - Pass Details

Date: 23 March 2026
Orbit: 555 x 592 km, 48.2° (Epoch: 18 April)

Event Time Altitude Azimuth Distance (km) Brightness Sun altitude
Rises 02:42:15 0° 238° (WSW) 2,817 - -26.7°
Reaches altitude 10° 02:44:36 10° 232° (SW) 1,918 - -26.5°
Maximum altitude 02:48:48 45° 160° (SSE) 808 - -25.9°
Exits shadow 02:49:49 38° 122° (ESE) 913 ? -25.8°
Drops below altitude 10° 02:52:59 10° 87° (E) 1,914 ? -25.4°
Sets 02:55:19 0° 81° (E) 2,811 ? -25.1°
